Regional Weather Roundup
Issued by NWS

Home | Current Version | Previous Version | Text Only | Print | Product List | Glossary Off
Versions: 1 2 3 4 5 6 7 8 9 10 11 12 13 14 15 16 17 18 19 20 21 22 23 24 25 26 27

000
ASUS45 KTFX 220910
RWRMT
MONTANA REGIONAL WEATHER ROUNDUP
NATIONAL WEATHER SERVICE GREAT FALLS MT
200 AM MST THU FEB 22 2018

NOTE: "FAIR" INDICATES FEW OR NO CLOUDS BELOW 12000 FEET WITH NO
SIGNIFICANT WEATHER AND/OR OBSTRUCTIONS TO VISIBILITY.

MTZ001>007-043-221000-
WEST OF THE DIVIDE

CITY           SKY/WX    TMP DP  RH WIND       PRES   REMARKS
KALISPELL      FAIR       4   1  88 W3        30.09S
MISSOULA       CLOUDY    13   4  67 E7        30.06F WCI   3
BUTTE          FAIR      -7 -12  79 S5        29.92F
MULLAN PASS    CLOUDY     6   3  87 SE7       29.84S WCI  -6
ANACONDA         N/A      3  -2  78 W3        29.95F
DEER LODGE       N/A      0  -8  71 W6        30.00R WCI -12
HAMILTON         N/A     10   7  85 MISG      30.02F
RONAN            N/A      0  -4  85 CALM      30.10S
$$

MTZ008-052>055-221000-
SOUTHWEST MONTANA

CITY           SKY/WX    TMP DP  RH WIND       PRES   REMARKS
BOZEMAN        FAIR      -1  -7  75 SE12      30.00S WCI -18
DILLON         CLOUDY     4   3  96 SE7       29.92F WCI  -8
ENNIS          CLOUDY    18   5  57 S15G23    29.96F WCI   3
W YELLOWSTONE  LGT SNOW   3   1  92 CALM      29.93S
THREE FORKS      N/A     -5 -11  75 CALM      29.99F
$$

MTZ009-010-012-014-046-048-049-054-221000-
EAST SLOPES AND CENTRAL MONTANA

CITY           SKY/WX    TMP DP  RH WIND       PRES   REMARKS
CUT BANK       FAIR       1  -7  68 N10       30.03R WCI -15
GREAT FALLS    FAIR       4  -4  69 N5        30.03R
MALMSTROM AFB  FAIR      -1  -6  81 CALM      30.05S
HELENA         FAIR       1  -3  83 SE3       30.05S
AUGUSTA        MOCLDY     6  -4  63 NW12      29.97R WCI  -9
BOWMANS CRNR   MOCLDY     7  -1  69 S10       29.96R WCI  -7
CHOTEAU          N/A      3  -9  55 W5        30.03R
FAIRFIELD      MOCLDY     2  -7  65 SE3       30.01R
POWER          FAIR      -3 -12  66 N7        30.02R WCI -17
RAYNESFORD     FAIR       7  -3  64 E3        30.01S
ULM            MOCLDY     5  -4  67 CALM      30.03S
WHITE SULPHUR    N/A     -6  -9  84 CALM      29.95S
$$

MTZ011-013-016-021-045-047-050-051-221000-
NORTH CENTRAL MONTANA

CITY           SKY/WX    TMP DP  RH WIND       PRES   REMARKS
HAVRE          FAIR     -22 -26  82 W3        30.14R
LEWISTOWN      FAIR       2  -4  76 SE6       30.01S WCI  -9
N BAR RANCH    FAIR       0  -8  71 CALM      30.02S
CHINOOK          N/A    -26 -29  83 CALM      30.18R
GEYSER         FAIR       4  -6  63 SW6       30.01R WCI  -6
STANFORD       FAIR       6  -6  56 W6        29.99S WCI  -5
WINIFRED       FAIR      10  -2  59 SW5       30.03R
$$

MTZ017>020-022>027-061-062-221000-
NORTHEAST MONTANA

CITY           SKY/WX    TMP DP  RH WIND       PRES   REMARKS
GLASGOW        FAIR     -11 -16  78 SE8       30.16S WCI -28
GLENDIVE       FAIR      -9 -13  83 W5        30.20S
JORDAN           N/A    -23 -28  78 W6        30.13S WCI -39
MALTA          CLEAR    -24 -29  76 CALM      30.17S
SIDNEY         FAIR     -13 -17  82 CALM      30.24F
WOLF POINT     FAIR     -19 -24  77 CALM      30.21F
PLENTYWOOD       N/A     -2  -8  78 E3        30.17F
POPLAR           N/A    -15 -20  76 CALM      30.22F
$$

MTZ028>42-056>058-221000-
SOUTHCENTRAL AND SOUTHEAST MONTANA

CITY           SKY/WX    TMP DP  RH WIND       PRES   REMARKS
BAKER          FAIR     -11 -16  78 SE8       30.16S WCI -28
BILLINGS       FAIR      10  -2  58 SW17      30.05F WCI  -8
LIVINGSTON     FAIR       5   0  79 N3        29.98S
MILES CITY     FAIR     -19 -23  81 NW6       30.17S WCI -34
BIG TIMBER     CLEAR      0  -4  85 E3        30.04R
FORSYTH          N/A    -13 -17  84 CALM      30.15F
HARLOWTON      FAIR      -2  -7  79 NW14      30.01S WCI -21
LAUREL           N/A      5  -4  66 W7        30.08S WCI  -7
$$

REGIONAL REPORTS...DAKOTAS

CITY           SKY/WX    TMP DP  RH WIND       PRES   REMARKS
WILLISTON      FAIR      -5 -11  75 SW3       30.24S
MINOT          FAIR      -2  -8  76 SE10      30.27F WCI -19
DICKINSON      FAIR      -5 -13  68 SW7       30.17F WCI -19
BEACH          FAIR      -6 -13  71 S6        30.20S WCI -18
CROSBY         FAIR      -2  -9  71 SW17      30.22S WCI -24
TIOGA          FAIR      -2  -8  78 S5        30.22F
WATFORD CITY   FAIR     -13 -18  77 CALM      30.23F
BISMARCK       FAIR      -7 -11  83 E6        30.34F WCI -20
GRAND FORKS    FAIR      -4  -8  83 SE8       30.49F WCI -19
FARGO          FAIR       4  -3  73 SE12      30.50F WCI -12
BUFFALO SD       N/A     -4 -11  72 CALM      30.08S
RAPID CITY     FAIR       4  -3  73 E6        30.14F WCI  -7
$$

REGIONAL REPORTS...WYOMING/IDAHO/WASHINGTON

CITY           SKY/WX    TMP DP  RH WIND       PRES   REMARKS
GILLETTE       FAIR       4  -5  66 SE13      30.05R WCI -13
SHERIDAN       FAIR     -11 -16  78 CALM      30.06F
BUFFALO WY     FAIR      13  -5  44 NW5       30.01R
CODY           FAIR       5  -3  69 N5        30.01S
YELLOWSTONE LA   N/A    -13 -17  82 NW3       29.92F
IDAHO FALLS    MOCLDY    12   6  77 NW5       30.02F
SALMON         CLOUDY    20  15  81 CALM      29.98F
BOISE          LGT SNOW  28  26  92 SE5       29.97F VSB 1
SPOKANE        CLOUDY    16  14  92 N6        30.09F WCI   7
$$

REGIONAL REPORTS...ALBERTA

CITY           SKY/WX    TMP DP  RH WIND       PRES   REMARKS
CALGARY        CLOUDY    14   5  67 W6        30.06R WCI   5
FORT MCMURRAY  PTCLDY    12   7  79 SW8       29.95R WCI   1
HIGH LEVEL     CLEAR     23  12  63 NW7       30.04R WCI  15
LETHBRIDGE     CLEAR      7  -2  66 W5        30.08R
LLOYDMINSTER   CLEAR      0  -6  78 W14       30.00R WCI -19
MEDICINE HAT   CLEAR     -4 -11  71 SW12      30.13R WCI -22
PEACE RIVER    PTCLDY    12   9  85 W8        30.11R WCI   1
PINCHER CREEK  PTCLDY     9   1  72 W13G18    30.03R WCI  -7
$$

REGIONAL REPORTS...SASKATCHEWAN

CITY           SKY/WX    TMP DP  RH WIND       PRES   REMARKS
ESTEVAN        PTCLDY   -15 -20  76 VRB2      30.22S
MOOSE JAW        N/A    -11 -17  77 S8          N/A  WCI -28
PRINCE ALBERT  CLEAR     -4  -8  84 SW6       30.11F WCI -16
REGINA         CLEAR    -15 -18  84 SE9       30.17F WCI -33
ROCKGLEN         N/A     -8 -15  71 SW9         N/A  WCI -25
SASKATOON      CLEAR     -6 -11  77 S8        30.13F WCI -21
SWIFT CURRENT  CLEAR     -6 -13  71 SW16      30.03S WCI -28
$$




USA.gov is the U.S. government's official web portal to all federal, state and local government web resources and services.